Location: Rounton
(54.4000°N, 1.3500°W)
Time: 08:57:30
(UTC+01:00)

deb Agena D - Pass Details

Date: 14 June 2023
Orbit: 996 x 1023 km, 100.1° (Epoch: 29 September)

Event Time Altitude Azimuth Distance (km) Brightness Sun altitude
Exits shadow 01:12:52 15° 167° (SSE) 2,408 ? -12.3°
Maximum altitude 01:18:08 78° 252° (WSW) 1,027 ? -12.3°
Drops below altitude 10° 01:24:23 10° 340° (NNW) 2,778 ? -12.3°
Sets 01:26:53 0° 342° (NNW) 3,731 ? -12.2°
